Regional Weather Roundup
Issued by NWS

Home | Current Version | Previous Version | Graphics & Text | Print | Product List | Glossary On
Versions: 1 2 3 4 5 6 7 8 9 10 11 12 13 14 15 16 17 18 19 20 21 22 23 24 25 26 27 28 29 30 31 32 33 34 35 36 37 38 39 40 41 42 43 44 45 46 47 48 49 50
000
ASUS43 KDTX 240810
RWRMI
MICHIGAN HOURLY REGIONAL WEATHER ROUNDUP
NATIONAL WEATHER SERVICE DETROIT/PONTIAC MI
400 AM EDT FRI MAR 24 2017

NOTE: "FAIR" INDICATES FEW OR NO CLOUDS BELOW 12,000 FEET WITH NO
SIGNIFICANT WEATHER AND/OR OBSTRUCTION TO VISIBILITY.

MIZ047>049-052>055-059>063-066>070-074>076-081>083-240900-
SOUTHEAST LOWER MICHIGAN

CITY           SKY/WX    TMP DP  RH WIND       PRES   REMARKS
ADRIAN         MOCLDY    39  37  92 S6        30.06F WCI  35
ALMA           CLOUDY    38  37  93 SW9       29.98F WCI  32
ANN ARBOR      CLOUDY    43  38  82 S12       30.05F
BAD AXE        CLOUDY    37  27  69 S12       30.01F WCI  29
CARO           MOCLDY    38  32  78 SE5       29.99S WCI  35
DETROIT CITY   CLOUDY    40  38  93 S15G22    30.04F WCI  32
DETROIT        CLOUDY    43  39  86 S9        30.06F
FLINT          CLOUDY    41  36  82 S8G21     29.99F
GROSSE ILE     LGT RAIN  41  38  89 S21       30.04F
HILLSDALE      CLOUDY    39  34  81 S10       30.03F WCI  32
HOWELL         CLOUDY    43  38  82 S9        29.99F

CITY           SKY/WX    TMP DP  RH WIND       PRES   REMARKS
JACKSON        PTCLDY    41  36  82 S8        30.02F
LAMBERTVILLE   CLOUDY    43  39  88 S5        30.07F
LANSING        PTCLDY    46  35  65 S17G25    29.98F
LAPEER         DRIZZLE   40  36  87 S7        30.00F WCI  35
MASON          PTCLDY    44  37  76 S3G18     29.99F
MONROE         CLOUDY    42  39  90 S14G22    30.06F
MT. CLEMENS    LGT RAIN  39  39 100 S8        30.02F WCI  34
PONTIAC        CLOUDY    38  35  89 MISG      30.01F
PORT HOPE        N/A     37  26  64 S8        30.00F WCI  31
PORT HURON     CLOUDY    39  32  75 S8        30.04F WCI  34
TRI CITIES     LGT RAIN  39  36  89 CALM      29.99F
MIDLAND        LGT RAIN  39  32  76 CALM      30.01R
TROY           CLOUDY    40  36  86 S8        30.05F WCI  34
SAGINAW HB     MOCLDY    39  34  81 S6        29.98F WCI  35
$$
MIZ043>046-050>051-056>058-064>065-071>073-077>080-240900-
SOUTHWEST LOWER MICHIGAN

CITY           SKY/WX    TMP DP  RH WIND       PRES   REMARKS
BATTLE CREEK   CLOUDY    45  37  73 S16       29.99F
BENTON HARBOR  MOCLDY    49  35  58 S12       29.97F
BIG RAPIDS     CLOUDY    37  33  87 CALM      29.97F
COLDWATER      CLOUDY    47  36  63 S10G18    30.02F
FREMONT        CLOUDY    41  37  84 CALM      29.98R
HOLLAND        CLOUDY    44  36  73 S13       29.96F
GRAND RAPIDS   MOCLDY    44  35  70 S12       29.96F
IONIA          FAIR      43  35  72 S12       29.95F
KALAMAZOO      CLOUDY    45  35  68 S10       29.99F
LUDINGTON      LGT RAIN  45  35  69 SW12G18   29.95R
MARSHALL       MOCLDY    44  37  76 S10G18    29.99F
MOUNT PLEASANT CLOUDY    37  33  83 CALM      29.99R
MUSKEGON       CLOUDY    49  34  56 S20G28    29.96R
SOUTH HAVEN    CLOUDY    46  36  68 S9        29.96F
$$
MIZ016>042-240900-
NORTHERN LOWER MICHIGAN

CITY           SKY/WX    TMP DP  RH WIND       PRES   REMARKS
ALPENA         FRZ RAIN  32  31  96 E6        30.03F FOG     WCI  26
BEAVER ISLAND  MIX PCPN  32  31  96 E5        29.96F WCI  28
BELLAIRE       CLOUDY    33  32  95 CALM      29.97F
CADILLAC       CLOUDY    38  32  79 SW7       29.94F WCI  32
CHARLEVOIX     CLOUDY    33  32  95 E5        29.99F WCI  29
FRANKFORT      CLOUDY    43  33  65 S8        29.94R
GAYLORD        CLOUDY    34  28  79 SE6       29.94F WCI  29
GRAYLING       CLOUDY    32  32 100 SE6       29.95F WCI  26
HARBOR SPRINGS CLOUDY    32  31  98 E5        29.98F WCI  27
HOUGHTON LAKE  CLOUDY    36  29  75 S5        29.98R WCI  32
MANISTEE       LGT RAIN  41  35  79 SE3       29.94F
OSCODA         LGT SNOW  34  31  89 N5        30.01S WCI  30
PELLSTON       CLOUDY    32  29  88 CALM      29.98F
ROGERS CITY    CLOUDY    32  30  92 SE6       30.02F WCI  27
TRAVERSE CITY  CLOUDY    37  33  85 CALM      29.95F
$$
MIZ007>008-015-240900-
EASTERN UPPER MICHIGAN

CITY           SKY/WX    TMP DP  RH WIND       PRES   REMARKS
KINROSS        MIX PCPN  32  30  92 S10       29.97F WCI  24
MACKINAC ISLAN MIX PCPN  31  31 100 SE7       29.97F WCI  24
NEWBERRY       CLOUDY    31  30  97 S5        29.94F FOG     WCI  26
S. S. MARIE    FRZ RAIN  33  29  85 SE9       29.97F WCI  25
MUNISING         N/A     34  33  96 CALM      29.93F
$$
MIZ004>006-011>014-085-240900-
CENTRAL UPPER MICHIGAN

CITY           SKY/WX    TMP DP  RH WIND       PRES   REMARKS
MANISTIQUE     MIX PCPN  32  32 100 S6        29.95S WCI  26
ESCANABA       LGT RAIN  34  33  96 SE6       29.93F FOG     WCI  29
MENOMINEE        N/A    N/A N/A N/A MISG        N/A
SAWYER-GWINN   MIX PCPN  32  31  96 CALM      29.91F
$$
MIZ001>003-009>011-084-240900-
WESTERN UPPER MICHIGAN

CITY           SKY/WX    TMP DP  RH WIND       PRES   REMARKS
IRON MOUNTAIN  CLOUDY    32  28  85 CALM      29.88F FOG
HOUGHTON       MIX PCPN  32  30  92 CALM      29.88F FOG
COPPER HARBOR    N/A     33  31  92 VRB5      29.91F WCI  29
IRONWOOD       CLOUDY    34  30  86 CALM      29.90F FOG
$$

ABBREVIATIONS USED IN REMARKS
   TC - TEMPERATURE IN CELSIUS
  WCI - WIND CHILL INDEX
   HX - HEAT INDEX
  VSB - VISIBILITY





USA.gov is the U.S. government's official web portal to all federal, state and local government web resources and services.